Tracking 27420 objects as of 28-May-2023
HD Live streaming from Space Station
objects crossing your sky now

LANDSAT 2

Track LANDSAT 2 now!
10-day predictions
LANDSAT 2 is classified as:


NORAD ID: 7615
Int'l Code: 1975-004A
Perigee: 905.4 km
Apogee: 918.9 km
Inclination: 98.9 °
Period: 103.1 minutes
Semi major axis: 7283 km
RCS: 3.0869 m2 (large)
Launch date: January 22, 1975
Source: United States (US)
Launch site: AIR FORCE WESTERN TEST RANGE (AFWTR)
Your satellite tracking list
Your tracking list is empty




NASA's NSSDC Master Catalog

Two Line Element Set (TLE):
1  7615U 75004A   23147.84532163  .00000245  00000-0  20676-3 0  9999
2  7615  98.8774 115.7946 0009318 136.6593 223.5305 13.96765638463558
Source of the keplerian elements: AFSPC